Showing default

METEOR 2-21, 22782

Orbit data source: Space-Track

METEOR 2-21, 22782 is a Commonwealth of Independent States-origin payload satellite in LEO that was launched on Tue, 31 Aug 1993 UTC via a TSIKLON-3 launch vehicle from the Plesetsk Missile And Space Complex (PKMTR). Payloads include a variety of satellites, spacecraft, and rockets equipped with specific instruments for various scientific and technological missions. These include communications satellites like Starlink; space stations such as the ISS; scientific satellites like the Hubble; Earth observation satellites from companies like Planet Labs, Umbra, and HawkEye 360; GPS; miniature CubeSats for education and research; and military/defense satellites.

Loading next visibility...
METEOR 2-21 details
Identifier
22782, 1993-055A
Orbit
LEO
Last TLE update5 hours ago
Origin
Flag of CISVKS/RGMS (CIS)
ManufacturerVNIIEM
MissionCivil Cal/Sci
Bus & MotorMETEOR-2, Unknown motor
Mass~1,500 kg wet, ~1,500 kg dry
Launch date (UTC)
1993-08-31 (31 years ago)
Launch vehicle
TSIKLON-3
Launch site
Plesetsk Missile And Space Complex (PKMTR)
Object type
Payload
Rocket body
Debris
Shape & HBRCyl + 2 Pan, 4.5 m
Radar Cross Section5.718 m², Large (>1 m²)

Expand to show TLE details & history

TLE from 5 hours ago
0 METEOR 2-21
1 22782U 93055A   24361.50482142  .00000117  00000-0  92056-4 0  9990
2 22782  82.5491   1.5963 0021062 277.9313 248.2508 13.83972345581940
Epoch: 2024-12-26T12:06Z
Definitive object data (Epoch: 2024-12-26T12:06:56.57Z)
Latitude13.88968°
Longitude-97.46628°
Altitude957.748 km
Speed7.371 km/s
True Right ascension11h 59m 00s
True Declination13° 48' 43"
Sunlit
Object was in daylight at TLE epoch
Visualization TLE readout
Latitude-44.39373°
Longitude-88.48623°
Altitude957.538 km
Speed7.377 km/s
Apparent Right ascension08h 58m 57s
Apparent Declination-58° 56' 38"
Sunlit
Object is in daylight
Visualization observer readout
Local Sidereal Time16:58:34
Azimuth222.268° SW
Elevation-48.328°
Doppler factor1
Orbital elements
Apogee altitude962.411 km
Perigee altitude931.555 km
Semi-major axis7,325.12 km
Eccentricity0.0021062
Inclination82.5491°
RAAN1.5963°
Arg. of periapsis277.9313°
True anomaly248.02685°
Mean anomaly248.2508°
Eccentric anomaly248.1388°
Mean motion3.46195 °/min
BSTAR0.000092056
Orbital period103.99 mins
Loading maneuver chart data...
Loading historical data...
Loading historical data...
Loading historical data...
Loading historical data...
Loading historical data...
Loading historical data...
Loading historical data...
Other satellites on launch #55 in the year 1993 (1993-08-31 UTC)

METEOR 2-21 Visibility forecast

Observer location: undefined°, undefined

Span
Click to sort rows by Start time (UTC) header in descending order
Start Az.
Max El. time (UTC)
Max El. Az.
Max El.
End time (UTC)
End Az.
6 mins2024-12-26 23:36:13.039Z115.097° SE2024-12-26 23:39:13.039Z83.184° E16.397°2024-12-26 23:42:13.039Z50.914° ENE
10 mins2024-12-27 01:19:13.039Z201.183° SSW2024-12-27 01:23:13.039Z264.1° W42.252°2024-12-27 01:29:13.039Z1.284° NNE
4 mins2024-12-27 10:29:13.039Z45.36° ENE2024-12-27 10:31:13.039Z66.099° ENE13.604°2024-12-27 10:33:13.039Z86.786° E
10 mins2024-12-27 12:12:13.039Z350.524° N2024-12-27 12:17:13.039Z206.153° SW44.445°2024-12-27 12:22:13.039Z177.244° S
|